Time,TemperatureF,DewpointF,PressureIn,WindDirection,WindDirectionDegrees,WindSpeedMPH,WindSpeedGustMPH,Humidity,HourlyPrecipIn,Conditions,Clouds,dailyrainin,SoftwareType,DateUTC
2013-05-24 00:03:00,47.0,45.0,30.19,North,352,3.0,9.0,92,0.00,,,0.12,,2013-05-24 04:03:00,
2013-05-24 00:12:00,47.0,45.0,30.19,North,352,3.0,9.0,92,0.00,,,0.12,,2013-05-24 04:12:00,
2013-05-24 00:23:00,47.0,45.0,30.20,NNW,333,4.0,10.0,92,0.00,,,0.12,,2013-05-24 04:23:00,
2013-05-24 00:33:00,47.0,45.0,30.20,WNW,285,4.0,7.0,92,0.00,,,0.12,,2013-05-24 04:33:00,
2013-05-24 00:42:00,47.0,45.0,30.20,WNW,285,4.0,7.0,92,0.00,,,0.12,,2013-05-24 04:42:00,
2013-05-24 00:53:00,47.0,45.0,30.20,North,358,2.0,6.0,92,0.00,,,0.12,,2013-05-24 04:53:00,
2013-05-24 01:02:00,47.0,45.0,30.21,North,7,5.0,9.0,92,0.00,,,0.12,,2013-05-24 05:02:00,
2013-05-24 01:12:00,47.0,45.0,30.21,North,7,5.0,9.0,92,0.00,,,0.12,,2013-05-24 05:12:00,
2013-05-24 01:22:00,47.0,45.0,30.21,North,356,3.0,5.0,92,0.00,,,0.12,,2013-05-24 05:22:00,
2013-05-24 01:32:00,47.0,45.0,30.21,NW,305,3.0,9.0,91,0.00,,,0.12,,2013-05-24 05:32:00,
2013-05-24 01:42:00,47.0,45.0,30.21,NW,305,3.0,9.0,91,0.00,,,0.12,,2013-05-24 05:42:00,
2013-05-24 01:52:00,47.0,45.0,30.22,WNW,290,5.0,11.0,91,0.00,,,0.12,,2013-05-24 05:52:00,
2013-05-24 02:02:00,46.0,44.0,30.22,NNW,333,3.0,7.0,92,0.00,,,0.12,,2013-05-24 06:02:00,
2013-05-24 02:12:00,46.0,44.0,30.22,NNW,333,3.0,7.0,92,0.00,,,0.12,,2013-05-24 06:12:00,
2013-05-24 02:21:00,46.0,44.0,30.22,WNW,299,4.0,7.0,92,0.00,,,0.12,,2013-05-24 06:21:00,
2013-05-24 02:32:00,45.0,43.0,30.22,NNW,336,4.0,9.0,93,0.00,,,0.12,,2013-05-24 06:32:00,
2013-05-24 02:42:00,45.0,43.0,30.22,NNW,336,4.0,9.0,93,0.00,,,0.12,,2013-05-24 06:42:00,
2013-05-24 02:52:00,45.0,43.0,30.22,WNW,303,3.0,7.0,94,0.00,,,0.12,,2013-05-24 06:52:00,
2013-05-24 03:01:00,44.0,42.0,30.22,NW,322,4.0,7.0,94,0.00,,,0.12,,2013-05-24 07:01:00,
2013-05-24 03:11:00,44.0,42.0,30.22,NW,322,4.0,7.0,94,0.00,,,0.12,,2013-05-24 07:11:00,
2013-05-24 03:22:00,44.0,43.0,30.23,NNE,13,3.0,6.0,95,0.00,,,0.12,,2013-05-24 07:22:00,
2013-05-24 03:32:00,44.0,43.0,30.23,NNW,328,3.0,6.0,95,0.00,,,0.12,,2013-05-24 07:32:00,
2013-05-24 03:42:00,44.0,43.0,30.23,NNW,328,3.0,6.0,95,0.00,,,0.12,,2013-05-24 07:42:00,
2013-05-24 03:52:00,44.0,43.0,30.24,NW,304,2.0,6.0,95,0.00,,,0.12,,2013-05-24 07:52:00,
2013-05-24 04:02:00,44.0,43.0,30.25,NNE,27,3.0,6.0,95,0.00,,,0.12,,2013-05-24 08:02:00,
2013-05-24 04:11:00,44.0,43.0,30.25,NNE,27,3.0,6.0,95,0.00,,,0.12,,2013-05-24 08:11:00,
2013-05-24 04:22:00,44.0,42.0,30.25,NW,322,2.0,5.0,94,0.00,,,0.12,,2013-05-24 08:22:00,
2013-05-24 04:33:00,43.0,41.0,30.25,NNE,12,1.0,7.0,94,0.00,,,0.12,,2013-05-24 08:33:00,
2013-05-24 04:42:00,43.0,41.0,30.25,NNE,12,1.0,7.0,94,0.00,,,0.12,,2013-05-24 08:42:00,
2013-05-24 04:52:00,43.0,41.0,30.25,North,8,1.0,4.0,94,0.00,,,0.12,,2013-05-24 08:52:00,
2013-05-24 05:02:00,43.0,41.0,30.25,NNE,13,1.0,3.0,94,0.00,,,0.12,,2013-05-24 09:02:00,
2013-05-24 05:11:00,43.0,41.0,30.25,NNE,13,1.0,3.0,94,0.00,,,0.12,,2013-05-24 09:11:00,
2013-05-24 05:22:00,42.0,40.0,30.25,NNE,15,0.0,1.0,94,0.00,,,0.12,,2013-05-24 09:22:00,
2013-05-24 05:32:00,42.0,40.0,30.27,North,6,1.0,6.0,94,0.00,,,0.12,,2013-05-24 09:32:00,
2013-05-24 05:42:00,42.0,40.0,30.27,North,6,1.0,6.0,94,0.00,,,0.12,,2013-05-24 09:42:00,
2013-05-24 05:53:00,42.0,40.0,30.26,NNE,23,1.0,3.0,93,0.00,,,0.12,,2013-05-24 09:53:00,
2013-05-24 06:03:00,42.0,40.0,30.27,North,350,1.0,5.0,93,0.00,,,0.12,,2013-05-24 10:03:00,
2013-05-24 06:12:00,42.0,40.0,30.27,North,350,1.0,5.0,93,0.00,,,0.12,,2013-05-24 10:12:00,
2013-05-24 06:23:00,41.0,39.0,30.27,North,354,0.0,3.0,93,0.00,,,0.12,,2013-05-24 10:23:00,
2013-05-24 06:33:00,41.0,39.0,30.27,North,352,1.0,2.0,94,0.00,,,0.12,,2013-05-24 10:33:00,
2013-05-24 06:42:00,41.0,39.0,30.27,North,352,1.0,2.0,94,0.00,,,0.12,,2013-05-24 10:42:00,
2013-05-24 06:53:00,41.0,39.0,30.29,NW,308,2.0,5.0,94,0.00,,,0.12,,2013-05-24 10:53:00,
2013-05-24 07:02:00,41.0,39.0,30.30,NW,315,1.0,2.0,94,0.00,,,0.12,,2013-05-24 11:02:00,
2013-05-24 07:12:00,41.0,39.0,30.30,NW,315,1.0,2.0,94,0.00,,,0.12,,2013-05-24 11:12:00,
2013-05-24 07:22:00,41.0,39.0,30.31,NW,311,1.0,5.0,93,0.00,,,0.12,,2013-05-24 11:22:00,
2013-05-24 07:32:00,41.0,39.0,30.32,NNE,24,1.0,5.0,92,0.00,,,0.12,,2013-05-24 11:32:00,
2013-05-24 07:42:00,41.0,39.0,30.32,NNE,24,1.0,5.0,92,0.00,,,0.12,,2013-05-24 11:42:00,
2013-05-24 07:52:00,41.0,39.0,30.32,NNE,20,1.0,5.0,92,0.00,,,0.12,,2013-05-24 11:52:00,
2013-05-24 08:02:00,41.0,39.0,30.33,NNE,22,3.0,5.0,91,0.00,,,0.12,,2013-05-24 12:02:00,
2013-05-24 08:11:00,41.0,39.0,30.33,NNE,22,3.0,5.0,91,0.00,,,0.12,,2013-05-24 12:11:00,
2013-05-24 08:22:00,42.0,39.0,30.33,NNE,19,2.0,5.0,90,0.00,,,0.12,,2013-05-24 12:22:00,
2013-05-24 08:32:00,42.0,39.0,30.34,NW,306,2.0,7.0,90,0.00,,,0.12,,2013-05-24 12:32:00,
2013-05-24 08:42:00,42.0,39.0,30.34,NW,306,2.0,7.0,90,0.00,,,0.12,,2013-05-24 12:42:00,
2013-05-24 08:52:00,43.0,40.0,30.35,North,349,3.0,5.0,88,0.00,,,0.12,,2013-05-24 12:52:00,
2013-05-24 09:02:00,43.0,39.0,30.35,North,360,1.0,5.0,87,0.00,,,0.12,,2013-05-24 13:02:00,
2013-05-24 09:11:00,43.0,39.0,30.35,North,360,1.0,5.0,87,0.00,,,0.12,,2013-05-24 13:11:00,
2013-05-24 09:22:00,45.0,41.0,30.35,WSW,243,0.0,3.0,86,0.00,,,0.09,,2013-05-24 13:22:00,
2013-05-24 09:32:00,45.0,41.0,30.36,North,352,1.0,5.0,85,0.00,,,0.09,,2013-05-24 13:32:00,
2013-05-24 09:42:00,45.0,41.0,30.36,North,352,1.0,5.0,85,0.00,,,0.09,,2013-05-24 13:42:00,
2013-05-24 09:52:00,46.0,42.0,30.36,NW,304,3.0,7.0,86,0.00,,,0.09,,2013-05-24 13:52:00,
2013-05-24 10:02:00,47.0,42.0,30.37,North,6,3.0,5.0,84,0.00,,,0.09,,2013-05-24 14:02:00,
2013-05-24 10:11:00,47.0,42.0,30.37,North,6,3.0,5.0,84,0.00,,,0.09,,2013-05-24 14:11:00,
2013-05-24 10:22:00,47.0,42.0,30.37,NE,52,1.0,7.0,83,0.00,,,0.04,,2013-05-24 14:22:00,
2013-05-24 10:32:00,48.0,43.0,30.38,North,4,0.0,6.0,82,0.00,,,0.04,,2013-05-24 14:32:00,
2013-05-24 10:42:00,48.0,43.0,30.38,North,4,0.0,6.0,82,0.00,,,0.04,,2013-05-24 14:42:00,
2013-05-24 10:52:00,48.0,42.0,30.38,NW,311,2.0,6.0,81,0.00,,,0.04,,2013-05-24 14:52:00,
2013-05-24 11:02:00,49.0,43.0,30.38,NNW,347,3.0,8.0,80,0.00,,,0.04,,2013-05-24 15:02:00,
2013-05-24 11:11:00,49.0,43.0,30.38,NNW,347,3.0,8.0,80,0.00,,,0.04,,2013-05-24 15:11:00,
2013-05-24 11:22:00,50.0,44.0,30.38,NW,304,5.0,9.0,79,0.00,,,0.02,,2013-05-24 15:22:00,
2013-05-24 11:33:00,50.0,42.0,30.38,WNW,299,4.0,7.0,73,0.00,,,0.02,,2013-05-24 15:33:00,
2013-05-24 11:43:00,50.0,42.0,30.38,WNW,299,4.0,7.0,73,0.00,,,0.02,,2013-05-24 15:43:00,
2013-05-24 11:53:00,50.0,42.0,30.38,NNW,347,4.0,8.0,73,0.00,,,0.02,,2013-05-24 15:53:00,
2013-05-24 12:03:00,51.0,42.0,30.38,NW,311,4.0,12.0,72,0.00,,,0.02,,2013-05-24 16:03:00,
2013-05-24 12:13:00,51.0,42.0,30.38,NW,311,4.0,12.0,72,0.00,,,0.02,,2013-05-24 16:13:00,
2013-05-24 12:22:00,52.0,43.0,30.38,North,350,5.0,8.0,71,0.00,,,0.02,,2013-05-24 16:22:00,
2013-05-24 12:32:00,53.0,43.0,30.38,NNW,342,4.0,13.0,69,0.00,,,0.02,,2013-05-24 16:32:00,
2013-05-24 12:42:00,53.0,43.0,30.38,NNW,342,4.0,13.0,69,0.00,,,0.02,,2013-05-24 16:42:00,
2013-05-24 12:52:00,54.0,43.0,30.38,NW,311,5.0,8.0,66,0.00,,,0.02,,2013-05-24 16:52:00,
2013-05-24 13:02:00,55.0,43.0,30.38,NW,311,5.0,9.0,63,0.00,,,0.02,,2013-05-24 17:02:00,
2013-05-24 13:12:00,55.0,43.0,30.38,NW,311,5.0,9.0,63,0.00,,,0.02,,2013-05-24 17:12:00,
2013-05-24 13:22:00,55.0,42.0,30.38,NNW,339,3.0,12.0,61,0.00,,,0.02,,2013-05-24 17:22:00,
2013-05-24 13:32:00,56.0,41.0,30.38,NNW,341,6.0,14.0,57,0.00,,,0.02,,2013-05-24 17:32:00,
2013-05-24 13:42:00,56.0,41.0,30.38,NNW,341,6.0,14.0,57,0.00,,,0.02,,2013-05-24 17:42:00,
2013-05-24 13:52:00,57.0,41.0,30.38,NW,321,6.0,15.0,56,0.00,,,0.02,,2013-05-24 17:52:00,
2013-05-24 14:01:00,58.0,43.0,30.37,NNE,13,3.0,10.0,57,0.00,,,0.02,,2013-05-24 18:01:00,
2013-05-24 14:12:00,58.0,43.0,30.37,NNE,13,3.0,10.0,57,0.00,,,0.02,,2013-05-24 18:12:00,
2013-05-24 14:22:00,58.0,41.0,30.37,North,6,5.0,10.0,53,0.00,,,0.02,,2013-05-24 18:22:00,
2013-05-24 14:32:00,58.0,39.0,30.37,NNE,32,6.0,11.0,50,0.00,,,0.02,,2013-05-24 18:32:00,
2013-05-24 14:42:00,58.0,39.0,30.37,NNE,32,6.0,11.0,50,0.00,,,0.02,,2013-05-24 18:42:00,
2013-05-24 14:52:00,59.0,44.0,30.37,North,2,3.0,11.0,57,0.00,,,0.02,,2013-05-24 18:52:00,
2013-05-24 15:01:00,60.0,41.0,30.37,NW,304,4.0,10.0,49,0.00,,,0.02,,2013-05-24 19:01:00,
2013-05-24 15:11:00,60.0,41.0,30.37,NW,304,4.0,10.0,49,0.00,,,0.02,,2013-05-24 19:11:00,
2013-05-24 15:21:00,60.0,40.0,30.37,NW,323,4.0,11.0,47,0.00,,,0.02,,2013-05-24 19:21:00,
2013-05-24 15:32:00,61.0,40.0,30.36,NW,323,5.0,13.0,46,0.00,,,0.02,,2013-05-24 19:32:00,
2013-05-24 15:42:00,61.0,40.0,30.36,NW,323,5.0,13.0,46,0.00,,,0.02,,2013-05-24 19:42:00,
2013-05-24 15:52:00,61.0,41.0,30.36,NW,311,2.0,11.0,48,0.00,,,0.02,,2013-05-24 19:52:00,
2013-05-24 16:02:00,61.0,39.0,30.36,West,281,4.0,9.0,44,0.00,,,0.02,,2013-05-24 20:02:00,
2013-05-24 16:12:00,61.0,39.0,30.36,West,281,4.0,9.0,44,0.00,,,0.02,,2013-05-24 20:12:00,
2013-05-24 16:22:00,62.0,40.0,30.35,WNW,302,6.0,11.0,44,0.00,,,0.02,,2013-05-24 20:22:00,
2013-05-24 16:32:00,62.0,41.0,30.35,North,359,5.0,10.0,46,0.00,,,0.02,,2013-05-24 20:32:00,
2013-05-24 16:42:00,62.0,41.0,30.35,North,359,5.0,10.0,46,0.00,,,0.02,,2013-05-24 20:42:00,
2013-05-24 16:52:00,63.0,44.0,30.34,NW,310,4.0,9.0,49,0.00,,,0.02,,2013-05-24 20:52:00,
2013-05-24 17:01:00,63.0,41.0,30.34,NW,307,4.0,8.0,44,0.00,,,0.02,,2013-05-24 21:01:00,
2013-05-24 17:11:00,63.0,41.0,30.34,NW,307,4.0,8.0,44,0.00,,,0.02,,2013-05-24 21:11:00,
2013-05-24 17:21:00,63.0,41.0,30.34,WNW,288,4.0,8.0,44,0.00,,,0.01,,2013-05-24 21:21:00,
2013-05-24 17:33:00,63.0,42.0,30.34,North,2,6.0,11.0,46,0.00,,,0.01,,2013-05-24 21:33:00,
2013-05-24 17:43:00,63.0,42.0,30.34,North,2,6.0,11.0,46,0.00,,,0.01,,2013-05-24 21:43:00,
2013-05-24 17:53:00,63.0,40.0,30.34,North,359,4.0,8.0,42,0.00,,,0.01,,2013-05-24 21:53:00,
2013-05-24 18:03:00,63.0,40.0,30.33,North,360,3.0,8.0,42,0.00,,,0.01,,2013-05-24 22:03:00,
2013-05-24 18:12:00,63.0,40.0,30.33,North,360,3.0,8.0,42,0.00,,,0.01,,2013-05-24 22:12:00,
2013-05-24 18:22:00,63.0,41.0,30.33,NW,321,4.0,8.0,44,0.00,,,0.00,,2013-05-24 22:22:00,
2013-05-24 18:33:00,63.0,40.0,30.32,NNE,16,2.0,8.0,43,0.00,,,0.00,,2013-05-24 22:33:00,
2013-05-24 18:42:00,63.0,40.0,30.32,NNE,16,2.0,8.0,43,0.00,,,0.00,,2013-05-24 22:42:00,
2013-05-24 18:52:00,63.0,40.0,30.31,North,349,3.0,6.0,43,0.00,,,0.00,,2013-05-24 22:52:00,
2013-05-24 19:02:00,62.0,39.0,30.31,NW,319,4.0,9.0,43,0.00,,,0.00,,2013-05-24 23:02:00,
2013-05-24 19:11:00,62.0,39.0,30.31,NW,319,4.0,9.0,43,0.00,,,0.00,,2013-05-24 23:11:00,
2013-05-24 19:22:00,63.0,38.0,30.30,North,11,2.0,5.0,40,0.00,,,0.00,,2013-05-24 23:22:00,
2013-05-24 19:32:00,64.0,40.0,30.30,NNE,28,1.0,5.0,41,0.00,,,0.00,,2013-05-24 23:32:00,
2013-05-24 19:42:00,64.0,40.0,30.30,NNE,28,1.0,5.0,41,0.00,,,0.00,,2013-05-24 23:42:00,
2013-05-24 19:52:00,64.0,39.0,30.29,NE,38,2.0,5.0,40,0.00,,,0.00,,2013-05-24 23:52:00,
2013-05-24 20:01:00,63.0,40.0,30.29,NE,39,1.0,6.0,43,0.00,,,0.00,,2013-05-25 00:01:00,
2013-05-24 20:12:00,63.0,40.0,30.29,NE,39,1.0,6.0,43,0.00,,,0.00,,2013-05-25 00:12:00,
2013-05-24 20:22:00,65.0,41.0,30.29,North,6,1.0,2.0,41,0.00,,,0.00,,2013-05-25 00:22:00,
2013-05-24 20:32:00,63.0,40.0,30.29,North,10,1.0,4.0,43,0.00,,,0.00,,2013-05-25 00:32:00,
2013-05-24 20:42:00,63.0,40.0,30.29,North,10,1.0,4.0,43,0.00,,,0.00,,2013-05-25 00:42:00,
2013-05-24 20:52:00,61.0,39.0,30.29,NNW,328,2.0,4.0,44,0.00,,,0.00,,2013-05-25 00:52:00,
2013-05-24 21:01:00,60.0,41.0,30.29,NW,311,1.0,3.0,50,0.00,,,0.00,,2013-05-25 01:01:00,
2013-05-24 21:11:00,60.0,41.0,30.29,NW,311,1.0,3.0,50,0.00,,,0.00,,2013-05-25 01:11:00,
2013-05-24 21:22:00,58.0,40.0,30.29,NNE,15,1.0,3.0,51,0.00,,,0.00,,2013-05-25 01:22:00,
2013-05-24 21:32:00,55.0,41.0,30.30,NW,321,0.0,1.0,59,0.00,,,0.00,,2013-05-25 01:32:00,
2013-05-24 21:42:00,55.0,41.0,30.30,NW,321,0.0,1.0,59,0.00,,,0.00,,2013-05-25 01:42:00,
2013-05-24 21:52:00,53.0,40.0,30.31,NW,322,1.0,2.0,61,0.00,,,0.00,,2013-05-25 01:52:00,
2013-05-24 22:02:00,54.0,40.0,30.32,NW,320,2.0,4.0,60,0.00,,,0.00,,2013-05-25 02:02:00,
2013-05-24 22:12:00,54.0,40.0,30.32,NW,320,2.0,4.0,60,0.00,,,0.00,,2013-05-25 02:12:00,
2013-05-24 22:22:00,53.0,39.0,30.32,NNW,330,2.0,3.0,60,0.00,,,0.00,,2013-05-25 02:22:00,
2013-05-24 22:32:00,52.0,40.0,30.32,NNW,333,1.0,1.0,63,0.00,,,0.00,,2013-05-25 02:32:00,
2013-05-24 22:42:00,52.0,40.0,30.32,NNW,333,1.0,1.0,63,0.00,,,0.00,,2013-05-25 02:42:00,
2013-05-24 22:52:00,52.0,41.0,30.33,NNW,341,1.0,4.0,65,0.00,,,0.00,,2013-05-25 02:52:00,
2013-05-24 23:02:00,51.0,40.0,30.34,NW,306,2.0,3.0,66,0.00,,,0.00,,2013-05-25 03:02:00,
2013-05-24 23:11:00,51.0,40.0,30.34,NW,306,2.0,3.0,66,0.00,,,0.00,,2013-05-25 03:11:00,
2013-05-24 23:22:00,50.0,40.0,30.35,NW,318,2.0,4.0,68,0.00,,,0.00,,2013-05-25 03:22:00,
2013-05-24 23:32:00,50.0,40.0,30.35,WNW,301,2.0,4.0,69,0.00,,,0.00,,2013-05-25 03:32:00,
2013-05-24 23:43:00,50.0,40.0,30.35,WNW,301,2.0,4.0,69,0.00,,,0.00,,2013-05-25 03:43:00,
2013-05-24 23:53:00,49.0,40.0,30.35,NW,305,2.0,6.0,70,0.00,,,0.00,,2013-05-25 03:53:00,